Вернуться в каталог

SL-16 DEB

АктивенLEO
NORAD 22601·DEBRIS·🇷🇺 Russia

Запущен Mar 26, 1993 с Baikonur Cosmodrome

Loading…

Ближайшие Пролёты (ближайшие 24 часа)

TLE

СвежийSource: Space-Track

Эпоха: Sep 14, 2026, 03:16 UTC

1 22601U 93016K   26257.13618112 -.00000018  00000-0  21706-4 0  9995
2 22601  71.0415 302.5980 0173957 147.1582 214.0478 13.79121874683431

Отслеживайте SL-16 DEB в реальном времени с AllMySat

Download on the App Store